Terug naar catalogus

GRUS-3D

ActiefWetenschapSSO
NORAD 69919·PAYLOAD·🇫🇮 Finland

Gelanceerd Jul 7, 2026 vanaf Vandenberg Space Force Base

Loading…

Volgende Passages (komende 24 uur)

TLE

VersSource: Space-Track

Epoch: Sep 13, 2026, 16:28 UTC

1 69919U 26156BC  26256.68613588  .00000769  00000-0  81442-4 0  9995
2 69919  97.7441 155.9974 0005760 292.3925  67.6683 14.91954625 10191

Volg GRUS-3D in realtime met AllMySat

Download on the App Store